Погода в Мариуполе

Погода в Мариуполе : погода сейчас, прогноз погоды и архив. Всё, что Вы хотите узнать о погоде в Мариуполе!

Поиск расширенной информации на нашем сайте:

Другие новости

Новости СМИ2

Главная страница сайта

Новости сайта

03.07.2017

Напоминаем, что на нашем специализированном сайте Метеоцентр.Азия вы можете получить высокодетализированные автоматические прогнозы погоды по пунктам России, СНГ и мира в авиационном формате (включающие направление и скорость ветра, видимость, явления погоды, количество и форму облачности, нижнюю и верхнюю границу облачности).

Рекомендуем: Деревянные окна

Погода в Мариуполе - сегодня

Время (UTC), дата Ветер
(°,м/с) 
Видим.   Явления Облачность Т
(°С)
Тd
(°С)
f(%) Тe
(°С)
Pmin
(гПа)
dP
(гПа)
Po
(мм)
O2
(г/м3)
Тmin Tmax R s Состояние
почвы
00 18.07.17 360 (С) 20000 м    9/0 верхняя 
[Cc]
+18.7 +13.2 70 +25  1015.3  0.5  755  282           
03 18.07.17 360 (С) 20000 м    9/4 1000 м верхняя 
[Cu med, cong|Cc]
+18.2 +13 72 +23  1015.9  0.6  756  283           
06 18.07.17 020 (С) 10 км    5/1 1000 м средняя, верхняя 
[Cu hum|Ac trans|Cs]
+22.1 +14.6 62 +30  1016.2  0.4  756  279  +17.7         
09 18.07.17 070 (В) 20000 м    1/0 верхняя 
[Cs]
+27.1 +15.4 49 +36  1015.8  -0.2  756  274           
12 18.07.17 070 (В) 20000 м    6/0 верхняя 
[Ci fib]
+28.4 +15.3 45 +37  1014.7  -1.1  755  272         
15 18.07.17 020 (С) 10 км    8/3 1000 м верхняя 
[Cu hum|Ci fib]
+27.3 +14.1 44 +34  1013.7  -1  754  274           
18 18.07.17 020 (С) 10 км    8/0 верхняя 
[Cc]
+25.7 +13.4 47 +32  1014.6  0.8  755  275    +29.3      мокрая 
21 18.07.17 020 (С) 20000 м    ясно 
+21.5 +13.3 60 +27  1014.7  755  279           
00 19.07.17 020 (С) 20000 м    ясно 
+20.9 +12.2 57 +21               
03 19.07.17 050 (СВ) 10 км    3/0 верхняя 
[Cs]
+20.7 +12.3 59 +25  1015.1  0.4  755  281      360  897   
06 19.07.17 070 (В) 20000 м    3/0 верхняя 
[Ci]
+24 +15.1 58 +33  1015.3  0.3  755  277  +19.2        мокрая 
09 19.07.17 050 (СВ) 20000 м    9/0 верхняя 
[Cc]
+26.8 +14.7 47 +35  1014.2  -1  755  274        698   
12 19.07.17 020 (С) 20000 м    10/0 верхняя 
[Cc]
+29.1 +14.2 40 +36  1013.1  -1.1  754  272           
15 19.07.17 020 (С) 20000 м    10/5 600 м средняя 
[Sc|Ac As]
+27.8 +13.5 41 +34  1012.4  -0.7  753  273           
18 19.07.17 340 (С) 10 км    8/0 средняя, верхняя 
[Ac trans|Cc]
+24.2 +12.1 47 +28  1013.6  1.1  754  277    +29.6      мокрая 
21 19.07.17 360 (С) 20000 м    3/0 верхняя 
[Cs]
+21.8 +12.2 54 +26  1012.9  -0.8  754  279           
00 20.07.17 340 (С) 10 км    ясно 
+19.6 +11.8 61 +20    -0.3             
03 20.07.17 020 (С) 10 км    9/0 средняя, верхняя 
[Ac As|Cc]
+20.1 +12.6 62 +25  1012.7  0.1  753  280           
06 20.07.17 050 (СВ) 20000 м    9/0 средняя, верхняя 
[Ac trans|Cs]
+24.7 +13.4 49 +31  1013.1  0.5  754  276  +18.4         
09 20.07.17 140 (ЮВ) 20000 м    9/0 средняя 
[Ac As]
+26.3 +16.8 56 +38  1012.6  -0.4  754  273           
12 20.07.17 180 (Ю) 20000 м    8/0 средняя 
[As trans]
+27.2 +15.4 48 +36  1011.9  -0.7  753  273        <0.5   
15 20.07.17 200 (Ю) 20000 м    9/3 600 м средняя, верхняя 
[Cu hum|Ac As|Ci fib]
+25.8 +17.3 59 +39  1011.3  -0.6  753  273           
18 20.07.17 290 (З) 20000 м    6/0 верхняя 
[Cs]
+24.3 +15.9 59 +34  1011.6  0.2  753  275    +29       
21 20.07.17 340 (С) 10 км    3/0 верхняя 
[Cs]
+20.1 +17.3 84 +33  1012.2  0.5  753  279           
00 21.07.17 340 (С) 10 км    ясно 
+19.1 +13.1 68 +25  1012.3  0.1  753  281           
Время (UTC), дата Ветер
(°,м/с) 
Видим.   Явления Облачность Т
(°С)
Тd
(°С)
f(%) Тe
(°С)
Pmin
(гПа)
dP
(гПа)
Po
(мм)
O2
(г/м3)
Тmin Tmax R s Состояние
почвы

Для получения пояснительной информации подведите курсор к названию столбца.

ПОГОДА в Мариуполе - архив

Всё, что Вы хотите узнать о погоде в Мариуполе - удобно и подробно!

Выберите нужную дату (начиная с 1 января 2015* года) и нажмите кнопку "Найти".
Будут отображены архивные сводки погоды по пункту Мариуполь, начиная с указанной даты.


Отображать данные в формате CSV (для использования в таблицах Excel)


Внимание! Наш архив погоды предназначен исключительно для личного некоммерческого использования в познавательных целях. Если Вам необходимы официальные справки о состоянии погоды (для производственных, юридических, коммерческих и т.п. целей), обращайтесь в органы Росгидромета.

*Примечание: данная дата относится к архиву по метеостанциям СССР (Россия, СНГ, Балтия).
Архив по метеостанциям Зарубежной Европы и Азии (кроме Китая) хранится 10 дней, по другим регионам земного шара (Китай, Африка, Америка, Австралия, Океания) - 1 день.

Мариуполь - район местоположения метеостанции


Название, широта, долгота, высота метеостанции:
Мариуполь (город) 47°ш. 37.5°д. 70 м над ур. моря [Украина]

Дополнительная информация

В oтличие oт бoльшинства пoгoдных сайтoв мы публикуем пoдрoбную метеoинфoрмацию в детальнoм прoфессиoнальнoм фoрмате.

Характеристики температуры и влажнoсти вoздуха измеряются на высoте 2 м в тени вдали oт зданий и деревьев.
Скoрoсть ветра измеряется на высoте 10 м (на урoвне рoста челoвека скoрoсть ветра ниже в 1.5-2 раза). Если метеoстанция нахoдится в гoрoде или в лесу, тo скoрoсть ветра занижена на 2-4 м/с пo сравнению с oткрытым местoм. Скoрoсть ветра над акватoриями крупных рек и oзёр, а также на вершинах хoлмoв на 2-5 м/с выше, чем в oбычных услoвиях.
Атмoсфернoе давление в разных тoчках местнoсти мoжет значительнo oтличаться oт давления на метеoстанции, в зависимoсти oт услoвий рельефа (при пoдъёме на 10 м давление пoнижается примернo на 1 мм рт.ст.).